[[{"header":{"parameterUnit":"m.s-1","parameterCategory":1,"la1":30.2991,"la2":30.254,"lo1":-89.0895,"lo2":-89.0444,"dy":0.0017,"dx":0.0017,"nx":28,"ny":28,"refTime":"2025-07-03T03:00:00:Z","depth":0,"parameterNumber":2,"parameterNumberName":"U-component_of_WINDS"},"data":[0,0,0,0,0,0,0,0,0,0,0,0,0,0,0,0,0,0,0,0,0,0,0,0,0,0,0,0,0,0,0,0,0,0,0,0,0,0,0,0,0,0,0,0,0,0,0,0,0,0,0,0,0,0,0,0,0,0,-0.7566,-0.7566,0,-0.7499,-0.7498,-0.7497,-0.7461,-0.7461,-0.7461,-0.7461,-0.7388,-0.7386,-0.7384,0,0,0,0,0,0,0,0,0,0,0,0,0,-0.7661,-0.7659,-0.7566,-0.7566,-0.7565,-0.7499,-0.7498,-0.7497,-0.7461,-0.7461,-0.7461,-0.7461,-0.7389,-0.7386,-0.7384,0,0,0,0,0,0,0,0,0,0,0,0,0,-0.7609,-0.7659,-0.7567,-0.7539,-0.7536,-0.7499,-0.7498,-0.7497,-0.7461,-0.7461,-0.7461,-0.7461,-0.7389,-0.7387,-0.7384,-0.7367,0,0,-0.7375,-0.7374,0,0,0,0,0,0,0,0,-0.7612,-0.7605,-0.7544,-0.7541,-0.7537,-0.7488,-0.7504,-0.7453,-0.7461,-0.749,-0.7461,-0.7461,-0.7421,-0.7416,-0.7403,-0.7364,-0.7361,-0.7375,-0.7373,-0.7372,-0.7371,0,0,0,0,0,0,0,-0.7616,-0.7608,-0.7539,-0.7543,-0.7539,-0.7529,-0.7521,-0.7494,-0.7456,-0.7487,-0.7484,-0.7477,-0.7419,-0.7406,-0.7401,-0.736,-0.7375,-0.7372,-0.737,-0.7369,-0.7302,-0.7302,0,0,0,0,0,0,-0.7624,-0.7611,-0.7542,-0.7537,-0.7575,-0.7527,-0.7519,-0.7504,-0.7457,-0.7449,-0.7477,-0.7476,-0.7411,-0.7404,-0.7398,-0.7375,-0.7372,-0.7369,-0.7367,-0.7302,-0.7302,-0.7302,0,0,0,0,0,0,-0.7626,-0.7618,-0.7544,-0.7574,-0.7563,-0.7526,-0.7509,-0.7503,-0.7489,-0.7449,-0.7442,-0.7471,-0.741,-0.7402,-0.7375,-0.7372,-0.7368,-0.7365,-0.7302,-0.7302,-0.7302,-0.7329,0,0,0,0,0,0,-0.7629,-0.7619,-0.7614,-0.7574,-0.7562,-0.7524,-0.7509,-0.7502,-0.7485,-0.7482,-0.7441,-0.7434,-0.741,-0.738,-0.7372,-0.7368,-0.7363,-0.7302,-0.7302,-0.7302,-0.7328,-0.733,-0.7331,0,0,0,0,0,-0.7633,-0.7624,-0.7614,-0.7606,-0.7555,-0.7524,-0.7517,-0.749,-0.7485,-0.7478,-0.7452,-0.7436,-0.7374,-0.7377,-0.7369,-0.7363,-0.7302,-0.7302,-0.7302,-0.7328,-0.733,-0.7331,0,0,0,0,0,0,-0.7663,-0.7618,-0.7607,-0.7585,-0.7559,-0.7518,-0.7509,-0.7493,-0.7467,-0.7466,-0.7432,-0.7423,-0.7399,-0.7378,-0.7383,-0.7344,-0.7336,-0.7334,-0.7358,-0.736,-0.7361,-0.7367,-0.7361,0,0,0,0,0,-0.7668,-0.7648,-0.7609,-0.7593,-0.7581,-0.7547,-0.7533,-0.7514,-0.7485,-0.7474,-0.7446,-0.7417,-0.7391,-0.7374,-0.7348,-0.7325,-0.7315,-0.7317,-0.7319,-0.732,-0.7318,-0.7303,-0.7303,-0.7301,-0.7301,-0.7301,0,0,-0.7676,-0.7649,-0.7638,-0.7599,-0.7576,-0.7555,-0.7538,-0.7516,-0.75,-0.747,-0.7443,-0.7421,-0.7387,-0.7361,-0.7349,-0.7343,-0.7317,-0.732,-0.7321,-0.7319,-0.7303,-0.7303,-0.7303,-0.7301,-0.7301,-0.7301,0,0,-0.7681,-0.7659,-0.7643,-0.7621,-0.7587,-0.7565,-0.7561,-0.7523,-0.7507,-0.748,-0.7457,-0.7435,-0.7392,-0.7368,-0.735,-0.7344,-0.7327,-0.7336,-0.7344,-0.7329,-0.7329,-0.7329,-0.7326,-0.7325,-0.7335,-0.7335,-0.7335,0,-0.7695,-0.7664,-0.7636,-0.7616,-0.7598,-0.7571,-0.7554,-0.7533,-0.7493,-0.748,-0.7475,-0.7419,-0.7394,-0.7362,-0.736,-0.7347,-0.734,-0.7341,-0.7332,-0.7332,-0.7331,-0.7327,-0.7326,-0.7336,-0.7336,-0.7336,-0.7336,0,-0.7682,-0.766,-0.7651,-0.7614,-0.7595,-0.7576,-0.7545,-0.7529,-0.7512,-0.7489,-0.746,-0.7429,-0.7396,-0.7387,-0.737,-0.7352,-0.7349,-0.7339,-0.733,-0.7333,-0.7329,-0.7328,-0.7338,-0.7338,-0.7337,-0.7337,0,0,-0.7704,-0.7652,-0.7649,-0.7631,-0.7591,-0.7573,-0.7552,-0.7521,-0.7507,-0.7479,-0.746,-0.7423,-0.7412,-0.7392,-0.7372,-0.7359,-0.7355,-0.7349,-0.7348,-0.7351,-0.7331,-0.7339,-0.7338,-0.7343,-0.7343,-0.7343,-0.7334,0,-0.7702,-0.7666,-0.764,-0.7612,-0.759,-0.7564,-0.7545,-0.7518,-0.7497,-0.7474,-0.7449,-0.7423,-0.7412,-0.7399,-0.7386,-0.7358,-0.735,-0.7359,-0.7323,-0.7322,-0.7332,-0.7336,-0.7345,-0.7338,-0.7332,-0.7332,-0.7332,0,-0.7696,-0.767,-0.764,-0.7602,-0.7592,-0.7576,-0.7544,-0.7524,-0.7492,-0.7476,-0.7453,-0.7433,-0.7407,-0.7401,-0.7365,-0.7371,-0.7355,-0.7339,-0.7338,-0.7333,-0.7327,-0.733,-0.7335,-0.7334,-0.7329,-0.7329,-0.7329,0,-0.7713,-0.7671,-0.7648,-0.7633,-0.7589,-0.7578,-0.7558,-0.7526,-0.7509,-0.748,-0.7468,-0.7437,-0.7419,-0.7394,-0.7365,-0.7363,-0.7331,-0.7323,-0.7316,-0.7317,-0.731,-0.7311,-0.7311,-0.7301,-0.7301,-0.7301,-0.7301,0,-0.7714,-0.7696,-0.7655,-0.7641,-0.762,-0.759,-0.7569,-0.7547,-0.7519,-0.7498,-0.7473,-0.7454,-0.7416,-0.7392,-0.7368,-0.7341,-0.7334,-0.7319,-0.7313,-0.7321,-0.7323,-0.731,-0.7309,-0.7301,-0.7301,-0.7301,-0.7301,0,-0.773,-0.7702,-0.7674,-0.7635,-0.7624,-0.761,-0.7575,-0.7559,-0.7536,-0.751,-0.7502,-0.7465,-0.7434,-0.7403,-0.7362,-0.7346,-0.7319,-0.7311,-0.733,-0.7327,-0.7322,-0.7322,-0.7313,-0.731,-0.7303,-0.7303,-0.7303,0,-0.7732,-0.7718,-0.7677,-0.7662,-0.7643,-0.762,-0.7601,-0.7571,-0.7552,-0.7514,-0.7502,-0.7471,-0.7444,-0.7396,-0.7364,-0.7332,-0.7323,-0.7322,-0.7318,-0.7326,-0.7321,-0.7322,-0.732,-0.7323,-0.7323,-0.7323,-0.7323,0,-0.7737,-0.7724,-0.77,-0.767,-0.7649,-0.7624,-0.7598,-0.7587,-0.755,-0.7531,-0.75,-0.748,-0.7438,-0.7406,-0.737,-0.7348,-0.7329,-0.7325,-0.7322,-0.7329,-0.7341,-0.7334,-0.7333,-0.7325,-0.7325,-0.7325,-0.7325,-0.7325,-0.7745,-0.7732,-0.77,-0.7674,-0.7651,-0.7627,-0.7609,-0.7584,-0.7559,-0.7523,-0.7506,-0.7475,-0.7442,-0.7392,-0.737,-0.7344,-0.7338,-0.7334,-0.7333,-0.7332,-0.7333,-0.7346,-0.7337,-0.7337,-0.7337,-0.7337,-0.7337,0,-0.7749,-0.7728,-0.7703,-0.7668,-0.7646,-0.7632,-0.7602,-0.7584,-0.7558,-0.7529,-0.7503,-0.7467,-0.7436,-0.7402,-0.7368,-0.7354,-0.7344,-0.7346,-0.7346,-0.7341,-0.7341,-0.7347,-0.7354,-0.7354,-0.7354,-0.7354,-0.7354,-0.7354,-0.7748,-0.7724,-0.7706,-0.7669,-0.7647,-0.7618,-0.7602,-0.7579,-0.7556,-0.7517,-0.7492,-0.747,-0.7438,-0.7402,-0.7372,-0.7362,-0.735,-0.7354,-0.7342,-0.7343,-0.7341,-0.734,-0.7345,-0.7352,-0.7352,-0.7345,-0.7345,-0.7344]},{"header":{"parameterUnit":"m.s-1","parameterCategory":1,"la1":30.2991,"la2":30.254,"lo1":-89.0895,"lo2":-89.0444,"dy":0.0017,"dx":0.0017,"nx":28,"ny":28,"refTime":"2025-07-03T03:00:00:Z","depth":0,"parameterNumber":3,"parameterNumberName":"V-component_of_WINDS"},"data":[0,0,0,0,0,0,0,0,0,0,0,0,0,0,0,0,0,0,0,0,0,0,0,0,0,0,0,0,0,0,0,0,0,0,0,0,0,0,0,0,0,0,0,0,0,0,0,0,0,0,0,0,0,0,0,0,0,0,-1.5064,-1.5065,0,-1.5155,-1.5156,-1.5157,-1.5208,-1.5208,-1.5208,-1.5208,-1.5301,-1.5303,-1.5305,0,0,0,0,0,0,0,0,0,0,0,0,0,-1.4932,-1.4934,-1.5064,-1.5065,-1.5066,-1.5155,-1.5156,-1.5157,-1.5208,-1.5208,-1.5208,-1.5208,-1.53,-1.5303,-1.5306,0,0,0,0,0,0,0,0,0,0,0,0,0,-1.5003,-1.4934,-1.5063,-1.5102,-1.5106,-1.5155,-1.5156,-1.5158,-1.5208,-1.5208,-1.5208,-1.5208,-1.5299,-1.5303,-1.5306,-1.5324,0,0,-1.5317,-1.5318,0,0,0,0,0,0,0,0,-1.4998,-1.5007,-1.5095,-1.5099,-1.5104,-1.517,-1.5144,-1.5213,-1.5207,-1.5169,-1.5208,-1.5208,-1.5257,-1.5264,-1.5281,-1.5328,-1.5332,-1.5317,-1.5319,-1.5321,-1.5322,0,0,0,0,0,0,0,-1.4993,-1.5004,-1.51,-1.5096,-1.5102,-1.5114,-1.5124,-1.5157,-1.5211,-1.5172,-1.5176,-1.5186,-1.526,-1.5277,-1.5283,-1.5333,-1.5317,-1.532,-1.5322,-1.5324,-1.5399,-1.5399,0,0,0,0,0,0,-1.4983,-1.4999,-1.5097,-1.5103,-1.5051,-1.5116,-1.5128,-1.5149,-1.5211,-1.522,-1.5186,-1.5188,-1.5271,-1.5279,-1.5287,-1.5311,-1.5321,-1.5324,-1.5326,-1.5399,-1.5399,-1.5399,0,0,0,0,0,0,-1.4979,-1.4991,-1.5093,-1.5052,-1.5066,-1.5118,-1.5141,-1.515,-1.5168,-1.5221,-1.5231,-1.5194,-1.5272,-1.5282,-1.5314,-1.5315,-1.5326,-1.5329,-1.5399,-1.5399,-1.5399,-1.536,0,0,0,0,0,0,-1.4975,-1.4989,-1.4997,-1.5052,-1.5068,-1.5119,-1.5142,-1.5152,-1.5174,-1.5178,-1.5231,-1.524,-1.5273,-1.5309,-1.5318,-1.532,-1.5332,-1.5399,-1.5399,-1.5399,-1.5361,-1.5358,-1.5356,0,0,0,0,0,-1.4971,-1.4982,-1.4997,-1.5008,-1.5078,-1.5119,-1.5128,-1.5166,-1.5174,-1.5182,-1.5216,-1.5239,-1.5314,-1.5311,-1.5322,-1.5326,-1.54,-1.5399,-1.5399,-1.5363,-1.5359,-1.5356,0,0,0,0,0,0,-1.4926,-1.499,-1.5007,-1.5037,-1.5072,-1.5127,-1.5138,-1.5161,-1.5194,-1.5196,-1.5241,-1.5252,-1.528,-1.5306,-1.5303,-1.5346,-1.5359,-1.5361,-1.5328,-1.5325,-1.5322,-1.5315,-1.5334,0,0,0,0,0,-1.4919,-1.4947,-1.5002,-1.5023,-1.5039,-1.5086,-1.5105,-1.513,-1.5169,-1.5184,-1.522,-1.5256,-1.5288,-1.5308,-1.534,-1.5366,-1.5378,-1.5373,-1.537,-1.5368,-1.5369,-1.5384,-1.5383,-1.5398,-1.5398,-1.5398,0,0,-1.4906,-1.4945,-1.4959,-1.5014,-1.5045,-1.5072,-1.5098,-1.5126,-1.5147,-1.5188,-1.5221,-1.5248,-1.5292,-1.532,-1.5335,-1.5343,-1.5367,-1.5368,-1.5365,-1.5368,-1.5384,-1.5382,-1.5381,-1.5398,-1.5398,-1.5398,0,0,-1.4896,-1.4928,-1.4949,-1.4979,-1.5025,-1.5055,-1.506,-1.5112,-1.5132,-1.5166,-1.5197,-1.5223,-1.5276,-1.5306,-1.5328,-1.5329,-1.5351,-1.5338,-1.5324,-1.5338,-1.5336,-1.5336,-1.5335,-1.5335,-1.5339,-1.5339,-1.5338,0,-1.4874,-1.4917,-1.4957,-1.4983,-1.5006,-1.5045,-1.5066,-1.5093,-1.5147,-1.5162,-1.517,-1.5238,-1.527,-1.5306,-1.5306,-1.5323,-1.5329,-1.5332,-1.5333,-1.5333,-1.5333,-1.5333,-1.5333,-1.5337,-1.5337,-1.5337,-1.5337,0,-1.4887,-1.4916,-1.4928,-1.4978,-1.5003,-1.5026,-1.507,-1.5089,-1.5113,-1.5143,-1.5176,-1.5215,-1.5256,-1.5267,-1.529,-1.5306,-1.5309,-1.5325,-1.5339,-1.5329,-1.533,-1.533,-1.5334,-1.5335,-1.5335,-1.5336,0,0,-1.4851,-1.4924,-1.4927,-1.4951,-1.5004,-1.5027,-1.5052,-1.5092,-1.5108,-1.5144,-1.5166,-1.521,-1.5225,-1.525,-1.5277,-1.5289,-1.5287,-1.5303,-1.5305,-1.5299,-1.5306,-1.5294,-1.5293,-1.5302,-1.5302,-1.5302,-1.5303,0,-1.4849,-1.4896,-1.4932,-1.4965,-1.4993,-1.503,-1.5052,-1.5086,-1.5115,-1.5142,-1.5173,-1.5204,-1.5221,-1.5237,-1.5251,-1.5284,-1.5289,-1.5285,-1.5322,-1.5323,-1.531,-1.5294,-1.5281,-1.5279,-1.5303,-1.5303,-1.5304,0,-1.4852,-1.4886,-1.4922,-1.4972,-1.4985,-1.5004,-1.5043,-1.5069,-1.5109,-1.5129,-1.5156,-1.5184,-1.5212,-1.5223,-1.5262,-1.5259,-1.5276,-1.5295,-1.5296,-1.53,-1.5312,-1.5298,-1.528,-1.5279,-1.5305,-1.5305,-1.5305,0,-1.4821,-1.4876,-1.4905,-1.4924,-1.4983,-1.4995,-1.5021,-1.5061,-1.5083,-1.5117,-1.5131,-1.5168,-1.5189,-1.5217,-1.5254,-1.5259,-1.5288,-1.5303,-1.5305,-1.5304,-1.5309,-1.5308,-1.5293,-1.5321,-1.5321,-1.5321,-1.5321,0,-1.4814,-1.4834,-1.4892,-1.4909,-1.4933,-1.4975,-1.4997,-1.5025,-1.5061,-1.5084,-1.5119,-1.514,-1.5188,-1.5215,-1.5244,-1.5271,-1.528,-1.5297,-1.5304,-1.5293,-1.5291,-1.5305,-1.5306,-1.5321,-1.5321,-1.5321,-1.5321,0,-1.4784,-1.4823,-1.4856,-1.491,-1.4924,-1.4939,-1.4984,-1.5003,-1.5033,-1.5062,-1.5071,-1.5119,-1.5152,-1.5192,-1.5238,-1.5258,-1.5283,-1.5294,-1.5269,-1.5273,-1.5272,-1.5272,-1.5265,-1.5266,-1.5294,-1.5294,-1.5293,0,-1.4776,-1.4792,-1.4848,-1.4866,-1.489,-1.4919,-1.4941,-1.4983,-1.5004,-1.5051,-1.5064,-1.51,-1.5131,-1.5182,-1.5221,-1.5257,-1.5269,-1.5264,-1.5274,-1.5263,-1.5268,-1.5266,-1.5268,-1.5261,-1.5261,-1.526,-1.526,0,-1.4758,-1.4777,-1.4808,-1.4845,-1.4871,-1.4902,-1.4935,-1.4948,-1.4996,-1.5019,-1.5053,-1.5078,-1.5125,-1.516,-1.5201,-1.5226,-1.5251,-1.5256,-1.5259,-1.5247,-1.5232,-1.524,-1.5261,-1.5256,-1.5257,-1.5257,-1.5257,-1.5257,-1.4739,-1.4755,-1.4796,-1.4829,-1.4858,-1.4888,-1.4908,-1.4941,-1.497,-1.5012,-1.5035,-1.5069,-1.5109,-1.5165,-1.519,-1.5217,-1.5226,-1.5229,-1.523,-1.523,-1.5227,-1.5228,-1.5225,-1.5225,-1.5225,-1.5226,-1.5226,0,-1.4722,-1.4751,-1.4781,-1.4825,-1.4851,-1.4873,-1.491,-1.493,-1.496,-1.4995,-1.5024,-1.5064,-1.5098,-1.514,-1.5177,-1.519,-1.5202,-1.5198,-1.5198,-1.5203,-1.5217,-1.5211,-1.5188,-1.5188,-1.5188,-1.5188,-1.5188,-1.5188,-1.4717,-1.4745,-1.4768,-1.4811,-1.484,-1.4873,-1.4893,-1.4921,-1.4949,-1.4991,-1.502,-1.5047,-1.5084,-1.5124,-1.5157,-1.5168,-1.518,-1.5172,-1.5187,-1.5199,-1.5202,-1.5205,-1.52,-1.5175,-1.5175,-1.517,-1.517,-1.517]}]]